Regional Weather Roundup
Issued by NWS Midland/Odessa, TX

Skip options and go directly to product.
Home | Oldest Version | Previous Version | Current Version | All | Graphics & Text | Save Text | Print | Product List | Glossary On

Skip product version selection by date and time.   
341
ASUS44 KMAF 041510
RWRMAF
MIDLAND AREA WEATHER ROUNDUP
NATIONAL WEATHER SERVICE MIDLAND TX
1000 AM CDT SAT JUL 04 2015

...IN SOUTHWEST TEXAS AND SOUTHEAST NEW MEXICO...

CITY           SKY/WX    TMP DP  RH WIND       PRES   REMARKS
ALPINE         MOSUNNY   76  62  62 NE3       30.16S
ANDREWS        FAIR      76  65  68 S6        30.08R
ARTESIA        SUNNY     77  64  65 S9        30.09R
BIG SPRING     SUNNY     79  67  65 S13       30.07S
CARLSBAD       MOSUNNY   77  64  64 S8        30.05S
DRYDEN           N/A     76  70  82 VRB5      30.01R
FORT STOCKTON  MOSUNNY   77  66  68 SE12      30.04R
GUAD PASS      MOSUNNY   71  60  68 NE13      30.19R
HOBBS          SUNNY     73  66  78 SE9       30.11R
MARFA          MOSUNNY  N/A N/A N/A CALM      30.15R
MIDLAND AIRPK  MOSUNNY   79  67  65 S13       30.07R
MIDLAND INTL   CLOUDY    76  66  71 S13       30.06R
ODESSA         PTSUNNY   77  66  68 S10       30.07R
PECOS          MOSUNNY   79  65  63 E9        30.02R
PRESIDIO       PTSUNNY   83  63  49 MISG      30.00R
SEMINOLE       SUNNY     78  64  62 S9        30.09S
SNYDER         MOSUNNY   77  69  76 S9        30.05S
WINK           MOSUNNY   79  66  64 SE13      30.02S
$$
...OTHER STATIONS IN TEXAS...

CITY           SKY/WX    TMP DP  RH WIND       PRES   REMARKS
ABILENE        MOSUNNY   82  69  64 SW12      30.03R
AMARILLO       SUNNY     75  61  61 S7        30.09R
AUSTIN         PTSUNNY   81  74  79 SW12      30.02R
BROWNSVILLE    PTSUNNY   85  76  74 SE20      29.98R
CORPUS CHRISTI PTSUNNY   85  76  74 SE15      29.99R
DALLAS FTW     MOSUNNY   84  71  65 SW12      29.98R
DEL RIO        CLOUDY    77  71  82 SE9       29.98R
EL PASO        PTSUNNY   81  59  47 E9        30.06R
HOUSTON INT    PTSUNNY   86  76  71 SW9       30.03S
LUBBOCK        MOSUNNY   79  65  62 SW13      30.08R
SAN ANGELO     MOSUNNY   80  69  69 SE8       30.03R
SAN ANTONIO    PTSUNNY   82  72  71 S9        30.03R
WACO           PTSUNNY   83  72  69 S15       30.01S
WICHITA FALLS  NOT AVBL
$$
...OTHER LOCATIONS IN NEW MEXICO...

CITY           SKY/WX    TMP DP  RH WIND       PRES   REMARKS
ALAMAGORDO     PTSUNNY   77  59  53 NW7       30.10S
ALBUQUERQUE    PTSUNNY   76  56  49 CALM      30.18R
CANNON AFB     MOSUNNY   73  64  74 SW7       30.12R
CLOVIS         MOSUNNY   73  63  68 SW7         N/A
HOLLOMAN AFB   PTSUNNY   78  61  57 SW3       30.08S
ROSWELL        SUNNY     77  63  61 S5        30.08R
RUIDOSO        SUNNY     64  55  72 CALM      30.29S
SANTA FE       SUNNY     72  54  53 VRB7      30.23S
TRUTH OR CONSE MOSUNNY   77  59  53 VRB3      30.13S
TUCUMCARI      MOSUNNY   75  61  61 W8        30.08S
$$

USA.gov is the U.S. government's official web portal to all federal, state and local government web resources and services.